• In Romania
  • List of Countries
  • For 7 days
  • Water Temperature
  • Satellite Maps
  • Weather Map
  • Weather Widgets
  • user-avatar
    Login

    Hourly Weather Mendoza

    Today, 23 September, Saturday

    Time Temperature Precipitation Wind Pressure Humidity
    00:00 +18°C° 0 mm 2 mps 701 mmHg 30%
    01:00 +17°C° 0 mm 2 mps 701 mmHg 33%
    02:00 +17°C° 0 mm 2 mps 700 mmHg 34%
    03:00 +16°C° 0 mm 2 mps 700 mmHg 35%
    04:00 +15°C° 0 mm 2 mps 700 mmHg 36%
    05:00 +16°C° 0 mm 2 mps 700 mmHg 34%
    06:00 +17°C° 0 mm 2 mps 700 mmHg 33%
    07:00 +18°C° 0 mm 2 mps 701 mmHg 31%
    08:00 +19°C° 0 mm 2 mps 700 mmHg 29%
    09:00 +21°C° 0 mm 3 mps 700 mmHg 28%
    10:00 +24°C° 0 mm 3 mps 700 mmHg 26%
    11:00 +25°C° 0 mm 4 mps 700 mmHg 24%
    12:00 +26°C° 0 mm 5 mps 699 mmHg 23%
    13:00 +27°C° 0 mm 5 mps 698 mmHg 21%
    14:00 +27°C° 0 mm 5 mps 698 mmHg 21%
    15:00 +27°C° 0 mm 5 mps 697 mmHg 21%
    16:00 +27°C° 0 mm 5 mps 697 mmHg 21%
    17:00 +26°C° 0 mm 4 mps 697 mmHg 23%
    18:00 +25°C° 0 mm 3 mps 697 mmHg 25%
    19:00 +23°C° 0 mm 2 mps 697 mmHg 28%
    20:00 +23°C° 0 mm 2 mps 697 mmHg 28%
    21:00 +21°C° 0 mm 3 mps 698 mmHg 29%
    22:00 +20°C° 0 mm 3 mps 698 mmHg 30%
    23:00 +20°C° 0 mm 3 mps 697 mmHg 31%

    Tomorrow, 24 September, Sunday

    Time Temperature Precipitation Wind Pressure Humidity
    00:00 +19°C° 0 mm 3 mps 697 mmHg 32%
    01:00 +18°C° 0 mm 3 mps 697 mmHg 33%
    02:00 +18°C° 0 mm 3 mps 696 mmHg 35%
    03:00 +17°C° 0 mm 3 mps 696 mmHg 36%
    04:00 +17°C° 0 mm 3 mps 696 mmHg 38%
    05:00 +18°C° 0 mm 3 mps 696 mmHg 37%
    06:00 +18°C° 0 mm 3 mps 697 mmHg 36%
    07:00 +19°C° 0 mm 3 mps 697 mmHg 34%
    08:00 +21°C° 0 mm 3 mps 698 mmHg 32%
    09:00 +24°C° 0 mm 3 mps 698 mmHg 29%
    10:00 +25°C° 0 mm 3 mps 698 mmHg 27%
    11:00 +26°C° 0 mm 3 mps 698 mmHg 25%
    12:00 +27°C° 0 mm 3 mps 698 mmHg 23%
    13:00 +28°C° 0 mm 2 mps 697 mmHg 22%
    14:00 +28°C° 0 mm 3 mps 698 mmHg 21%
    15:00 +28°C° 0 mm 3 mps 698 mmHg 20%
    16:00 +29°C° 0 mm 3 mps 698 mmHg 20%
    17:00 +27°C° 0 mm 3 mps 698 mmHg 22%
    18:00 +26°C° 0 mm 2 mps 699 mmHg 24%
    19:00 +25°C° 0 mm 2 mps 700 mmHg 27%
    20:00 +24°C° 0 mm 2 mps 700 mmHg 29%
    21:00 +23°C° 0 mm 2 mps 700 mmHg 31%
    22:00 +23°C° 0 mm 2 mps 701 mmHg 33%
    23:00 +21°C° 0 mm 3 mps 701 mmHg 33%

    Day after tomorrow, 25 September, Monday

    Time Temperature Precipitation Wind Pressure Humidity
    00:00 +20°C° 0 mm 3 mps 701 mmHg 33%
    01:00 +20°C° 0 mm 4 mps 700 mmHg 33%
    02:00 +19°C° 0 mm 4 mps 700 mmHg 32%
    03:00 +19°C° 0 mm 5 mps 701 mmHg 32%
    04:00 +17°C° 0 mm 5 mps 701 mmHg 32%
    05:00 +17°C° 0 mm 5 mps 701 mmHg 31%
    06:00 +17°C° 0 mm 5 mps 701 mmHg 31%
    07:00 +17°C° 0 mm 5 mps 702 mmHg 31%
    08:00 +19°C° 0 mm 5 mps 702 mmHg 31%
    09:00 +20°C° 0 mm 5 mps 702 mmHg 32%
    10:00 +22°C° 0 mm 5 mps 702 mmHg 32%
    11:00 +23°C° 0 mm 5 mps 701 mmHg 32%
    12:00 +23°C° 0 mm 4 mps 701 mmHg 32%
    13:00 +25°C° 0 mm 4 mps 700 mmHg 33%
    14:00 +25°C° 0 mm 4 mps 700 mmHg 35%
    15:00 +25°C° 0 mm 4 mps 699 mmHg 36%
    16:00 +25°C° 0 mm 3 mps 699 mmHg 38%
    17:00 +24°C° 0 mm 3 mps 699 mmHg 43%
    18:00 +22°C° 0 mm 3 mps 699 mmHg 48%
    19:00 +21°C° 0 mm 3 mps 700 mmHg 52%
    20:00 +21°C° 0 mm 4 mps 699 mmHg 53%
    21:00 +20°C° 0 mm 4 mps 699 mmHg 54%
    22:00 +20°C° 0 mm 4 mps 699 mmHg 55%
    23:00 +19°C° 0 mm 4 mps 699 mmHg 54%

    26 September, Tuesday

    Time Temperature Precipitation Wind Pressure Humidity
    00:00 +19°C° 0 mm 4 mps 698 mmHg 53%
    01:00 +18°C° 0 mm 4 mps 698 mmHg 52%
    02:00 +18°C° 0 mm 4 mps 698 mmHg 52%
    03:00 +17°C° 0 mm 4 mps 697 mmHg 52%
    04:00 +17°C° 0 mm 4 mps 697 mmHg 52%
    05:00 +17°C° 0 mm 4 mps 697 mmHg 53%
    06:00 +17°C° 0 mm 4 mps 698 mmHg 55%
    07:00 +17°C° 0 mm 4 mps 698 mmHg 57%
    08:00 +17°C° 0 mm 5 mps 698 mmHg 57%
    09:00 +19°C° 0 mm 5 mps 698 mmHg 57%
    10:00 +20°C° 0 mm 5 mps 698 mmHg 57%
    11:00 +20°C° 0 mm 5 mps 698 mmHg 56%
    12:00 +21°C° 0 mm 6 mps 698 mmHg 56%
    13:00 +22°C° 0 mm 6 mps 698 mmHg 56%
    14:00 +20°C° 0 mm 6 mps 698 mmHg 59%
    15:00 +19°C° 0 mm 6 mps 698 mmHg 62%
    16:00 +17°C° 0 mm 7 mps 698 mmHg 65%
    17:00 +16°C° 0 mm 6 mps 698 mmHg 69%
    18:00 +15°C° 0 mm 6 mps 699 mmHg 72%
    19:00 +14°C° 0 mm 5 mps 700 mmHg 76%
    20:00 +13°C° 0 mm 5 mps 700 mmHg 76%
    21:00 +13°C° 0 mm 5 mps 700 mmHg 77%
    22:00 +13°C° 0 mm 5 mps 700 mmHg 77%
    23:00 +12°C° 0 mm 4 mps 700 mmHg 77%

    27 September, Wednesday

    Time Temperature Precipitation Wind Pressure Humidity
    00:00 +12°C° 0 mm 4 mps 700 mmHg 77%
    01:00 +12°C° 0 mm 4 mps 700 mmHg 77%
    02:00 +12°C° 0 mm 4 mps 700 mmHg 77%
    03:00 +11°C° 0 mm 4 mps 699 mmHg 77%
    04:00 +11°C° 0 mm 4 mps 699 mmHg 77%
    05:00 +11°C° 0 mm 3 mps 700 mmHg 77%
    06:00 +11°C° 0 mm 3 mps 700 mmHg 76%
    07:00 +12°C° 0 mm 3 mps 700 mmHg 75%
    08:00 +13°C° 0 mm 3 mps 700 mmHg 72%
    09:00 +13°C° 0 mm 3 mps 700 mmHg 68%
    10:00 +14°C° 0 mm 3 mps 699 mmHg 65%
    11:00 +17°C° 0 mm 3 mps 699 mmHg 61%
    12:00 +18°C° 0 mm 3 mps 698 mmHg 57%
    13:00 +19°C° 0 mm 3 mps 697 mmHg 52%
    14:00 +19°C° 0 mm 3 mps 697 mmHg 53%
    15:00 +20°C° 0 mm 3 mps 697 mmHg 54%
    16:00 +20°C° 0 mm 3 mps 697 mmHg 54%
    17:00 +19°C° 0 mm 3 mps 697 mmHg 57%
    18:00 +18°C° 0 mm 3 mps 698 mmHg 60%
    19:00 +18°C° 0 mm 3 mps 698 mmHg 63%
    20:00 +17°C° 0 mm 3 mps 698 mmHg 65%
    21:00 +17°C° 0 mm 3 mps 698 mmHg 66%
    22:00 +17°C° 0 mm 3 mps 698 mmHg 67%
    23:00 +16°C° 0 mm 3 mps 698 mmHg 68%

    28 September, Thursday

    Time Temperature Precipitation Wind Pressure Humidity
    00:00 +16°C° 0 mm 2 mps 697 mmHg 69%
    01:00 +16°C° 0 mm 2 mps 697 mmHg 69%
    02:00 +15°C° 0 mm 2 mps 697 mmHg 71%
    03:00 +15°C° 0 mm 2 mps 697 mmHg 72%
    04:00 +14°C° 0 mm 2 mps 697 mmHg 73%
    05:00 +15°C° 0 mm 2 mps 697 mmHg 70%
    06:00 +16°C° 0 mm 2 mps 698 mmHg 68%
    07:00 +17°C° 0 mm 2 mps 698 mmHg 65%
    08:00 +18°C° 0 mm 2 mps 698 mmHg 61%
    09:00 +19°C° 0 mm 2 mps 698 mmHg 58%
    10:00 +21°C° 0 mm 3 mps 698 mmHg 54%
    11:00 +22°C° 0 mm 3 mps 698 mmHg 50%
    12:00 +24°C° 0 mm 3 mps 697 mmHg 46%
    13:00 +25°C° 0 mm 3 mps 697 mmHg 42%
    14:00 +26°C° 0 mm 3 mps 697 mmHg 40%
    15:00 +26°C° 0 mm 3 mps 697 mmHg 38%
    16:00 +26°C° 0 mm 3 mps 697 mmHg 36%
    17:00 +25°C° 0 mm 2 mps 697 mmHg 39%
    18:00 +25°C° 0 mm 2 mps 698 mmHg 41%
    19:00 +24°C° 0 mm 2 mps 698 mmHg 43%
    20:00 +23°C° 0 mm 2 mps 698 mmHg 46%
    21:00 +22°C° 0 mm 3 mps 698 mmHg 48%
    22:00 +21°C° 0 mm 3 mps 698 mmHg 51%
    23:00 +21°C° 0 mm 3 mps 698 mmHg 52%
    Show more